PA2JOK Weather Reports


time (UTC)temp
C
wind
direction
speed
KPH
gust
KPH
rain 1hr
cm
rain 24hr
cm
rain mn
cm
humidity
%
barometer
mb
20260507084803 16 27 0.0 9.7 0.00 0.00 0.00 48 1015.8
20260507083303 16 7 0.0 6.4 0.00 0.00 0.00 52 1015.8
20260507081802 16 160 0.0 9.7 0.00 0.00 0.00 52 1015.8
20260507080302 15 63 3.2 9.7 0.00 0.00 0.00 54 1015.6
20260507074802 15 18 0.0 9.7 0.00 0.00 0.00 55 1015.5
20260507073303 13 25 3.2 9.7 0.00 0.00 0.00 59 1015.4
20260507071802 13 1 0.0 9.7 0.00 0.00 0.00 60 1015.4
20260507070303 13 20 3.2 9.7 0.00 0.00 0.00 60 1015.4
20260507064802 12 56 0.0 6.4 0.00 0.00 0.00 63 1015.3
20260507063303 12 2 0.0 6.4 0.00 0.00 0.00 64 1015.2
20260507061803 11 18 0.0 6.4 0.00 0.00 0.00 68 1015.2
20260507060302 10 29 3.2 6.4 0.00 0.00 0.00 71 1015.0
20260507054802 10 39 0.0 6.4 0.00 0.00 0.00 72 1014.8
20260507053303 10 15 0.0 3.2 0.00 0.00 0.00 73 1014.8
20260507051803 9 9 0.0 3.2 0.00 0.00 0.00 75 1014.7
20260507050303 8 8 0.0 3.2 0.00 0.00 0.00 77 1014.5
20260507044803 7 17 0.0 3.2 0.00 0.00 0.00 78 1014.4
20260507043303 7 30 0.0 3.2 0.00 0.00 0.00 78 1014.2
20260507041803 7 35 0.0 0.0 0.00 0.00 0.00 76 1014.1
20260507040303 7 35 0.0 3.2 0.00 0.00 0.00 75 1014.1
20260507034803 7 38 0.0 3.2 0.00 0.00 0.00 74 1014.0
20260507033303 7 28 0.0 6.4 0.00 0.00 0.00 73 1013.8
20260507031802 7 13 3.2 6.4 0.00 0.00 0.00 73 1013.9
20260507030303 7 68 6.4 6.4 0.00 0.00 0.00 73 1013.8
20260507024803 7 54 0.0 6.4 0.00 0.00 0.00 73 1013.7
20260507023303 8 56 0.0 6.4 0.00 0.00 0.00 73 1013.7
20260507021803 8 46 0.0 3.2 0.00 0.00 0.00 73 1013.5
20260507020303 8 54 0.0 6.4 0.00 0.00 0.00 72 1013.4
20260507014802 8 56 0.0 6.4 0.00 0.00 0.00 71 1013.4
20260507013302 8 69 0.0 9.7 0.00 0.00 0.00 71 1013.3
20260507011803 8 82 0.0 9.7 0.00 0.00 0.00 71 1013.3
20260507010303 9 14 3.2 6.4 0.00 0.00 0.00 70 1013.2
20260507004802 9 38 0.0 3.2 0.00 0.00 0.00 69 1013.2
20260507003303 9 56 3.2 6.4 0.00 0.00 0.00 68 1013.1
20260507001803 9 63 0.0 3.2 0.00 0.00 0.00 68 1013.0
20260507000303 10 64 0.0 0.0 0.00 0.00 0.00 67 1013.0
20260506234803 10 20 0.0 9.7 0.00 0.00 0.00 67 1012.9
20260506233302 10 66 0.0 9.7 0.00 0.00 0.00 66 1012.8
20260506231802 10 77 0.0 9.7 0.00 0.00 0.00 66 1012.7
20260506230302 10 77 0.0 12.9 0.00 0.00 0.00 66 1012.6
20260506224803 10 59 0.0 12.9 0.00 0.00 0.00 67 1012.5
20260506223302 10 35 0.0 6.4 0.00 0.00 0.00 67 1012.5
20260506221803 10 34 0.0 9.7 0.00 0.00 0.00 66 1012.5
20260506220303 10 35 0.0 9.7 0.00 0.00 0.00 68 1012.4
20260506214802 10 18 0.0 6.4 0.00 0.00 0.00 67 1012.3
20260506213302 11 23 0.0 0.0 0.00 0.00 0.00 65 1012.2
20260506211802 11 23 0.0 3.2 0.00 0.00 0.00 65 1012.1
20260506210302 11 24 3.2 6.4 0.00 0.00 0.00 64 1012.0
20260506204802 11 32 3.2 6.4 0.00 0.00 0.00 63 1012.1
20260506203303 11 34 0.0 9.7 0.00 0.00 0.00 63 1011.9
20260506201802 11 16 0.0 0.0 0.00 0.00 0.00 62 1011.7
20260506200302 11 19 0.0 3.2 0.00 0.00 0.00 60 1011.7
20260506194802 11 24 0.0 3.2 0.00 0.00 0.00 59 1011.6
20260506193302 11 25 0.0 6.4 0.00 0.00 0.00 58 1011.4
20260506191802 11 29 0.0 12.9 0.00 0.00 0.00 58 1011.3
20260506190303 11 60 9.7 16.1 0.00 0.00 0.00 57 1011.3
20260506184803 11 148 0.0 12.9 0.00 0.00 0.00 57 1011.0
20260506183303 11 149 3.2 12.9 0.00 0.00 0.00 57 1010.9
20260506181802 11 108 0.0 6.4 0.00 0.00 0.00 57 1010.8
20260506180303 11 71 0.0 6.4 0.00 0.00 0.00 57 1010.6
20260506174802 11 65 6.4 6.4 0.00 0.00 0.00 57 1010.3
20260506173303 11 94 0.0 6.4 0.00 0.00 0.00 57 1010.2
20260506171802 11 84 3.2 9.7 0.00 0.00 0.00 56 1010.1
20260506170304 11 141 0.0 9.7 0.00 0.00 0.00 56 1010.0
20260506164802 11 95 3.2 12.9 0.00 0.00 0.00 56 1010.1
20260506163303 11 95 6.4 16.1 0.00 0.00 0.00 55 1010.1
20260506161803 11 65 9.7 22.5 0.00 0.00 0.00 56 1010.2
20260506160302 11 91 6.4 19.3 0.00 0.00 0.00 55 1010.2
20260506154803 11 93 0.0 16.1 0.00 0.00 0.00 53 1010.1
20260506153302 11 117 0.0 25.7 0.00 0.00 0.00 53 1010.1
20260506151803 11 97 3.2 16.1 0.00 0.00 0.00 53 1010.0
20260506150304 11 76 6.4 19.3 0.00 0.00 0.00 55 1010.0
20260506144802 11 104 12.9 22.5 0.00 0.00 0.00 55 1010.0
20260506143303 11 127 0.0 27.4 0.00 0.00 0.00 56 1010.1
20260506141803 11 177 0.0 19.3 0.00 0.00 0.00 54 1009.9
20260506140303 11 60 9.7 19.3 0.00 0.00 0.00 53 1009.9
20260506134803 11 128 0.0 27.4 0.00 0.00 0.00 52 1009.9
20260506133303 11 57 22.5 37.0 0.00 0.00 0.00 51 1009.9
20260506131802 11 89 16.1 51.5 0.00 0.00 0.00 49 1009.7
20260506130302 12 42 9.7 27.4 0.00 0.00 0.00 48 1009.6
20260506124802 12 74 0.0 22.5 0.00 0.00 0.00 50 1009.5
20260506123303 12 67 16.1 33.8 0.00 0.00 0.00 53 1009.4
20260506121803 12 96 3.2 19.3 0.00 0.00 0.00 52 1009.3
20260506120303 12 46 0.0 16.1 0.00 0.00 0.00 53 1009.2
20260506114803 13 18 9.7 22.5 0.00 0.00 0.00 59 1009.1
20260506113303 13 4 6.4 19.3 0.00 0.00 0.00 57 1009.1
20260506111802 13 33 6.4 19.3 0.00 0.00 0.00 56 1009.1
20260506110302 14 20 3.2 25.7 0.00 0.00 0.00 45 1009.0
20260506104803 13 187 0.0 33.8 0.00 0.00 0.00 47 1009.2
20260506103303 13 99 6.4 19.3 0.00 0.00 0.00 48 1009.0
20260506101803 12 137 6.4 25.7 0.00 0.00 0.00 49 1009.0
20260506100302 12 115 3.2 33.8 0.00 0.00 0.00 51 1008.8
20260506094803 12 52 16.1 27.4 0.00 0.00 0.00 51 1008.9
20260506093302 12 79 30.6 43.5 0.00 0.00 0.00 56 1008.9
20260506091803 12 103 12.9 33.8 0.00 0.00 0.00 58 1008.8
20260506090302 11 86 3.2 30.6 0.00 0.00 0.00 62 1008.8